Time,TemperatureF,DewpointF,PressureIn,WindDirection,WindDirectionDegrees,WindSpeedMPH,WindSpeedGustMPH,Humidity,HourlyPrecipIn,Conditions,Clouds,dailyrainin,SoftwareType,DateUTC
2013-10-04 00:03:00,74.3,65.4,29.75,SSE,160,6.0,9.0,74,0.00,FEW,FEW,0.00,WeatherDisplay:10.37,2013-10-04 05:03:00,
2013-10-04 00:06:00,74.3,65.4,29.75,SSE,148,5.0,9.0,74,0.00,FEW,FEW,0.00,WeatherDisplay:10.37,2013-10-04 05:06:00,
2013-10-04 00:12:00,74.3,65.4,29.75,ESE,119,7.0,12.0,74,0.00,FEW,FEW,0.00,WeatherDisplay:10.37,2013-10-04 05:12:00,
2013-10-04 00:18:00,74.3,65.4,29.75,SE,143,9.0,17.0,74,0.00,FEW,FEW,0.00,WeatherDisplay:10.37,2013-10-04 05:18:00,
2013-10-04 00:27:00,74.3,65.4,29.75,SE,143,6.0,14.0,74,0.00,FEW,FEW,0.00,WeatherDisplay:10.37,2013-10-04 05:27:00,
2013-10-04 00:30:00,74.3,65.4,29.75,SSE,154,7.0,12.0,74,0.00,FEW,FEW,0.00,WeatherDisplay:10.37,2013-10-04 05:30:00,
2013-10-04 00:33:00,74.3,65.4,29.75,SSE,153,7.0,13.0,74,0.00,FEW,FEW,0.00,WeatherDisplay:10.37,2013-10-04 05:33:00,
2013-10-04 00:39:00,74.3,65.4,29.75,SSE,156,8.0,14.0,74,0.00,FEW,FEW,0.00,WeatherDisplay:10.37,2013-10-04 05:39:00,
2013-10-04 00:45:00,74.3,65.4,29.75,SE,135,7.0,13.0,74,0.00,FEW,FEW,0.00,WeatherDisplay:10.37,2013-10-04 05:45:00,
2013-10-04 00:51:00,74.3,65.4,29.74,SE,143,5.0,13.0,74,0.00,FEW,FEW,0.00,WeatherDisplay:10.37,2013-10-04 05:51:00,
2013-10-04 00:57:00,74.3,65.4,29.74,South,170,6.0,13.0,74,0.00,FEW,FEW,0.00,WeatherDisplay:10.37,2013-10-04 05:57:00,
2013-10-04 01:03:00,74.2,65.4,29.74,SSE,162,7.0,16.0,74,0.00,BKN,BKN,0.00,WeatherDisplay:10.37,2013-10-04 06:03:00,
2013-10-04 01:09:00,74.2,65.3,29.74,SSE,159,7.0,12.0,74,0.00,BKN,BKN,0.00,WeatherDisplay:10.37,2013-10-04 06:09:00,
2013-10-04 01:15:00,74.0,65.5,29.74,SE,145,6.0,10.0,75,0.00,BKN,BKN,0.00,WeatherDisplay:10.37,2013-10-04 06:15:00,
2013-10-04 01:21:00,74.0,65.5,29.74,SSE,149,7.0,13.0,75,0.00,BKN,BKN,0.00,WeatherDisplay:10.37,2013-10-04 06:21:00,
2013-10-04 01:27:00,73.8,65.3,29.74,SE,131,7.0,12.0,75,0.00,BKN,BKN,0.00,WeatherDisplay:10.37,2013-10-04 06:27:00,
2013-10-04 01:33:00,73.8,65.3,29.74,SE,141,8.0,9.0,75,0.00,BKN,BKN,0.00,WeatherDisplay:10.37,2013-10-04 06:33:00,
2013-10-04 01:39:00,73.8,65.3,29.74,SE,131,7.0,8.0,75,0.00,BKN,BKN,0.00,WeatherDisplay:10.37,2013-10-04 06:39:00,
2013-10-04 01:45:00,73.8,65.3,29.74,SSE,150,6.0,10.0,75,0.00,BKN,BKN,0.00,WeatherDisplay:10.37,2013-10-04 06:45:00,
2013-10-04 01:51:00,73.8,65.3,29.75,SSE,161,6.0,8.0,75,0.00,BKN,BKN,0.00,WeatherDisplay:10.37,2013-10-04 06:51:00,
2013-10-04 01:57:00,73.6,65.1,29.75,SSE,161,6.0,15.0,75,0.00,BKN,BKN,0.00,WeatherDisplay:10.37,2013-10-04 06:57:00,
2013-10-04 02:03:00,73.6,65.1,29.75,SSE,154,5.0,8.0,75,0.00,SCT,SCT,0.00,WeatherDisplay:10.37,2013-10-04 07:03:00,
2013-10-04 02:09:00,73.6,65.1,29.75,SE,145,7.0,13.0,75,0.00,SCT,SCT,0.00,WeatherDisplay:10.37,2013-10-04 07:09:00,
2013-10-04 02:15:00,73.6,65.1,29.75,South,169,5.0,13.0,75,0.00,SCT,SCT,0.00,WeatherDisplay:10.37,2013-10-04 07:15:00,
2013-10-04 02:21:00,73.4,65.0,29.75,South,185,6.0,13.0,75,0.00,SCT,SCT,0.00,WeatherDisplay:10.37,2013-10-04 07:21:00,
2013-10-04 02:27:00,73.4,65.0,29.75,SE,142,8.0,13.0,75,0.00,SCT,SCT,0.00,WeatherDisplay:10.37,2013-10-04 07:27:00,
2013-10-04 02:33:00,73.4,65.3,29.75,SSE,161,6.0,13.0,76,0.00,SCT,SCT,0.00,WeatherDisplay:10.37,2013-10-04 07:33:00,
2013-10-04 02:39:00,73.4,65.3,29.74,SSE,152,7.0,12.0,76,0.00,SCT,SCT,0.00,WeatherDisplay:10.37,2013-10-04 07:39:00,
2013-10-04 02:45:00,73.3,65.2,29.74,SSE,149,6.0,9.0,76,0.00,SCT,SCT,0.00,WeatherDisplay:10.37,2013-10-04 07:45:00,
2013-10-04 02:51:00,73.3,65.2,29.74,South,189,7.0,9.0,76,0.00,SCT,SCT,0.00,WeatherDisplay:10.37,2013-10-04 07:51:00,
2013-10-04 02:57:00,73.1,65.0,29.74,SSE,160,7.0,14.0,76,0.00,SCT,SCT,0.00,WeatherDisplay:10.37,2013-10-04 07:57:00,
2013-10-04 03:03:00,72.9,65.2,29.74,SE,139,8.0,14.0,77,0.00,BKN,BKN,0.00,WeatherDisplay:10.37,2013-10-04 08:03:00,
2013-10-04 03:09:00,72.9,65.2,29.74,SSE,162,8.0,14.0,77,0.00,BKN,BKN,0.00,WeatherDisplay:10.37,2013-10-04 08:09:00,
2013-10-04 03:15:00,72.9,65.2,29.74,SSE,152,6.0,10.0,77,0.00,BKN,BKN,0.00,WeatherDisplay:10.37,2013-10-04 08:15:00,
2013-10-04 03:21:00,72.7,65.4,29.74,SSE,150,5.0,9.0,78,0.00,BKN,BKN,0.00,WeatherDisplay:10.37,2013-10-04 08:21:00,
2013-10-04 03:27:00,72.7,65.4,29.74,SSE,164,8.0,12.0,78,0.00,BKN,BKN,0.00,WeatherDisplay:10.37,2013-10-04 08:27:00,
2013-10-04 03:33:00,72.7,65.4,29.74,South,181,12.0,16.0,78,0.00,BKN,BKN,0.00,WeatherDisplay:10.37,2013-10-04 08:33:00,
2013-10-04 03:39:00,72.7,65.4,29.74,SSE,161,9.0,13.0,78,0.00,BKN,BKN,0.00,WeatherDisplay:10.37,2013-10-04 08:39:00,
2013-10-04 03:45:00,72.9,65.6,29.74,SSE,166,10.0,16.0,78,0.00,BKN,BKN,0.00,WeatherDisplay:10.37,2013-10-04 08:45:00,
2013-10-04 03:51:00,72.9,65.6,29.73,SSE,155,8.0,13.0,78,0.00,BKN,BKN,0.00,WeatherDisplay:10.37,2013-10-04 08:51:00,
2013-10-04 03:57:00,72.9,65.6,29.73,SSE,161,7.0,13.0,78,0.00,BKN,BKN,0.00,WeatherDisplay:10.37,2013-10-04 08:57:00,
2013-10-04 04:03:00,72.7,65.8,29.73,SSE,153,7.0,12.0,79,0.00,SCT,SCT,0.00,WeatherDisplay:10.37,2013-10-04 09:03:00,
2013-10-04 04:09:00,72.7,65.8,29.73,South,176,10.0,13.0,79,0.00,SCT,SCT,0.00,WeatherDisplay:10.37,2013-10-04 09:09:00,
2013-10-04 04:15:00,72.7,65.8,29.72,SSE,165,10.0,17.0,79,0.00,SCT,SCT,0.00,WeatherDisplay:10.37,2013-10-04 09:15:00,
2013-10-04 04:21:00,72.7,66.5,29.72,SE,140,7.0,12.0,81,0.00,SCT,SCT,0.00,WeatherDisplay:10.37,2013-10-04 09:21:00,
2013-10-04 04:27:00,72.5,66.3,29.72,SE,142,12.0,21.0,81,0.00,SCT,SCT,0.00,WeatherDisplay:10.37,2013-10-04 09:27:00,
2013-10-04 04:33:00,72.5,66.3,29.72,SSW,193,8.0,9.0,81,0.00,SCT,SCT,0.00,WeatherDisplay:10.37,2013-10-04 09:33:00,
2013-10-04 04:39:00,72.5,66.3,29.72,SE,143,8.0,14.0,81,0.00,SCT,SCT,0.00,WeatherDisplay:10.37,2013-10-04 09:39:00,
2013-10-04 04:45:00,72.5,66.3,29.72,SE,140,6.0,9.0,81,0.00,SCT,SCT,0.00,WeatherDisplay:10.37,2013-10-04 09:45:00,
2013-10-04 04:51:00,72.5,66.3,29.72,SE,139,6.0,10.0,81,0.00,SCT,SCT,0.00,WeatherDisplay:10.37,2013-10-04 09:51:00,
2013-10-04 04:57:00,72.5,66.7,29.72,SSE,153,5.0,14.0,82,0.00,SCT,SCT,0.00,WeatherDisplay:10.37,2013-10-04 09:57:00,
2013-10-04 05:03:00,72.4,66.6,29.72,SSE,158,9.0,13.0,82,0.00,SCT,SCT,0.00,WeatherDisplay:10.37,2013-10-04 10:03:00,
2013-10-04 05:09:00,72.4,66.6,29.72,SSE,150,10.0,15.0,82,0.00,SCT,SCT,0.00,WeatherDisplay:10.37,2013-10-04 10:09:00,
2013-10-04 05:15:00,72.4,66.6,29.72,SSE,150,9.0,12.0,82,0.00,SCT,SCT,0.00,WeatherDisplay:10.37,2013-10-04 10:15:00,
2013-10-04 05:21:00,72.5,66.7,29.72,SSE,165,9.0,10.0,82,0.00,SCT,SCT,0.00,WeatherDisplay:10.37,2013-10-04 10:21:00,
2013-10-04 05:27:00,72.5,66.7,29.72,South,170,8.0,9.0,82,0.00,SCT,SCT,0.00,WeatherDisplay:10.37,2013-10-04 10:27:00,
2013-10-04 05:33:00,72.7,66.8,29.72,SSE,161,8.0,13.0,82,0.00,SCT,SCT,0.00,WeatherDisplay:10.37,2013-10-04 10:33:00,
2013-10-04 05:39:00,72.7,66.8,29.72,SSE,157,7.0,13.0,82,0.00,SCT,SCT,0.00,WeatherDisplay:10.37,2013-10-04 10:39:00,
2013-10-04 05:45:00,72.7,66.8,29.72,SSE,163,8.0,10.0,82,0.00,SCT,SCT,0.00,WeatherDisplay:10.37,2013-10-04 10:45:00,
2013-10-04 05:51:00,72.7,66.8,29.72,SSE,155,10.0,22.0,82,0.00,SCT,SCT,0.00,WeatherDisplay:10.37,2013-10-04 10:51:00,
2013-10-04 05:57:00,73.1,66.9,29.72,SSE,162,9.0,9.0,81,0.00,SCT,SCT,0.00,WeatherDisplay:10.37,2013-10-04 10:57:00,
2013-10-04 06:03:00,73.1,66.2,29.72,SSE,148,9.0,16.0,79,0.00,SCT,SCT,0.00,WeatherDisplay:10.37,2013-10-04 11:03:00,
2013-10-04 06:09:00,73.1,66.2,29.72,ESE,114,5.0,14.0,79,0.00,SCT,SCT,0.00,WeatherDisplay:10.37,2013-10-04 11:09:00,
2013-10-04 06:15:00,73.3,66.4,29.72,SSE,147,8.0,19.0,79,0.00,SCT,SCT,0.00,WeatherDisplay:10.37,2013-10-04 11:15:00,
2013-10-04 06:21:00,73.4,66.4,29.72,SSE,163,12.0,14.0,79,0.00,SCT,SCT,0.00,WeatherDisplay:10.37,2013-10-04 11:21:00,
2013-10-04 06:27:00,73.4,66.5,29.72,South,178,12.0,14.0,79,0.00,SCT,SCT,0.00,WeatherDisplay:10.37,2013-10-04 11:27:00,
2013-10-04 06:33:00,73.6,66.3,29.72,SSE,167,9.0,16.0,78,0.00,SCT,SCT,0.00,WeatherDisplay:10.37,2013-10-04 11:33:00,
2013-10-04 06:39:00,73.6,66.3,29.73,SSE,155,9.0,13.0,78,0.00,SCT,SCT,0.00,WeatherDisplay:10.37,2013-10-04 11:39:00,
2013-10-04 06:45:00,73.6,66.3,29.73,SSE,159,8.0,15.0,78,0.00,SCT,SCT,0.00,WeatherDisplay:10.37,2013-10-04 11:45:00,
2013-10-04 06:51:00,73.4,66.1,29.72,SSE,149,8.0,12.0,78,0.00,SCT,SCT,0.00,WeatherDisplay:10.37,2013-10-04 11:51:00,
2013-10-04 06:57:00,73.4,66.1,29.72,South,179,9.0,14.0,78,0.00,SCT,SCT,0.00,WeatherDisplay:10.37,2013-10-04 11:57:00,
2013-10-04 07:03:00,73.6,66.3,29.72,SSE,168,12.0,18.0,78,0.00,BKN,BKN,0.00,WeatherDisplay:10.37,2013-10-04 12:03:00,
2013-10-04 07:09:00,73.6,66.3,29.72,SSE,161,9.0,14.0,78,0.00,BKN,BKN,0.00,WeatherDisplay:10.37,2013-10-04 12:09:00,
2013-10-04 07:15:00,73.6,66.3,29.72,South,174,8.0,19.0,78,0.00,BKN,BKN,0.00,WeatherDisplay:10.37,2013-10-04 12:15:00,
2013-10-04 07:21:00,73.4,66.1,29.72,SSE,153,12.0,17.0,78,0.00,BKN,BKN,0.00,WeatherDisplay:10.37,2013-10-04 12:21:00,
2013-10-04 07:27:00,73.3,66.4,29.72,SSE,161,12.0,16.0,79,0.00,BKN,BKN,0.00,WeatherDisplay:10.37,2013-10-04 12:27:00,
2013-10-04 07:33:00,73.3,66.4,29.72,South,176,9.0,13.0,79,0.00,BKN,BKN,0.00,WeatherDisplay:10.37,2013-10-04 12:33:00,
2013-10-04 07:39:00,73.3,66.4,29.73,SSE,163,12.0,13.0,79,0.00,BKN,BKN,0.00,WeatherDisplay:10.37,2013-10-04 12:39:00,
2013-10-04 07:45:00,73.3,66.4,29.73,South,182,7.0,12.0,79,0.00,BKN,BKN,0.00,WeatherDisplay:10.37,2013-10-04 12:45:00,
2013-10-04 07:51:00,73.3,66.4,29.73,South,185,6.0,9.0,79,0.00,BKN,BKN,0.00,WeatherDisplay:10.37,2013-10-04 12:51:00,
2013-10-04 07:57:00,73.3,66.4,29.73,South,170,8.0,14.0,79,0.00,BKN,BKN,0.00,WeatherDisplay:10.37,2013-10-04 12:57:00,
2013-10-04 08:03:00,73.4,66.4,29.73,SE,143,7.0,16.0,79,0.00,BKN,BKN,0.00,WeatherDisplay:10.37,2013-10-04 13:03:00,
2013-10-04 08:09:00,73.4,66.4,29.73,ESE,120,8.0,17.0,79,0.00,BKN,BKN,0.00,WeatherDisplay:10.37,2013-10-04 13:09:00,
2013-10-04 08:15:00,73.4,66.4,29.74,SE,145,9.0,13.0,79,0.00,BKN,BKN,0.00,WeatherDisplay:10.37,2013-10-04 13:15:00,
2013-10-04 08:21:00,73.6,66.6,29.74,South,182,10.0,15.0,79,0.00,BKN,BKN,0.00,WeatherDisplay:10.37,2013-10-04 13:21:00,
2013-10-04 08:27:00,73.6,66.6,29.74,SSE,150,9.0,13.0,79,0.00,BKN,BKN,0.00,WeatherDisplay:10.37,2013-10-04 13:27:00,
2013-10-04 08:33:00,73.6,66.6,29.74,South,183,9.0,16.0,79,0.00,BKN,BKN,0.00,WeatherDisplay:10.37,2013-10-04 13:33:00,
2013-10-04 08:39:00,73.6,66.6,29.74,South,181,7.0,16.0,79,0.00,BKN,BKN,0.00,WeatherDisplay:10.37,2013-10-04 13:39:00,
2013-10-04 08:45:00,73.6,67.4,29.74,SSE,159,12.0,21.0,81,0.00,BKN,BKN,0.00,WeatherDisplay:10.37,2013-10-04 13:45:00,
2013-10-04 08:51:00,73.6,67.4,29.74,SSE,156,10.0,13.0,81,0.00,BKN,BKN,0.00,WeatherDisplay:10.37,2013-10-04 13:51:00,
2013-10-04 08:57:00,73.8,67.6,29.74,SE,140,16.0,22.0,81,0.00,BKN,BKN,0.00,WeatherDisplay:10.37,2013-10-04 13:57:00,
2013-10-04 09:03:00,73.8,67.6,29.74,SSE,161,9.0,14.0,81,0.00,BKN,BKN,0.00,WeatherDisplay:10.37,2013-10-04 14:03:00,
2013-10-04 09:09:00,73.8,67.6,29.74,SSE,151,12.0,15.0,81,0.00,BKN,BKN,0.00,WeatherDisplay:10.37,2013-10-04 14:09:00,
2013-10-04 09:15:00,74.0,67.8,29.75,SSE,165,10.0,15.0,81,0.00,BKN,BKN,0.00,WeatherDisplay:10.37,2013-10-04 14:15:00,
2013-10-04 09:21:00,74.0,67.8,29.75,SE,138,9.0,16.0,81,0.00,BKN,BKN,0.00,WeatherDisplay:10.37,2013-10-04 14:21:00,
2013-10-04 09:27:00,74.0,67.8,29.75,SSE,154,8.0,14.0,81,0.00,BKN,BKN,0.00,WeatherDisplay:10.37,2013-10-04 14:27:00,
2013-10-04 09:33:00,74.1,67.8,29.75,SE,136,8.0,16.0,81,0.00,BKN,BKN,0.00,WeatherDisplay:10.37,2013-10-04 14:33:00,
2013-10-04 09:39:00,74.0,67.8,29.75,South,182,10.0,14.0,81,0.00,BKN,BKN,0.00,WeatherDisplay:10.37,2013-10-04 14:39:00,
2013-10-04 09:45:00,74.3,68.0,29.75,South,169,8.0,16.0,81,0.00,BKN,BKN,0.00,WeatherDisplay:10.37,2013-10-04 14:45:00,
2013-10-04 09:51:00,74.5,67.5,29.75,SSE,154,8.0,13.0,79,0.00,BKN,BKN,0.00,WeatherDisplay:10.37,2013-10-04 14:51:00,
2013-10-04 09:57:00,74.7,67.7,29.75,South,174,12.0,20.0,79,0.00,BKN,BKN,0.00,WeatherDisplay:10.37,2013-10-04 14:57:00,
2013-10-04 10:03:00,75.4,68.0,29.75,SSE,165,12.0,21.0,78,0.00,BKN,BKN,0.00,WeatherDisplay:10.37,2013-10-04 15:03:00,
2013-10-04 10:09:00,75.4,67.7,29.75,SSE,155,12.0,20.0,77,0.00,BKN,BKN,0.00,WeatherDisplay:10.37,2013-10-04 15:09:00,
2013-10-04 10:15:00,75.9,67.8,29.75,South,173,9.0,18.0,76,0.00,BKN,BKN,0.00,WeatherDisplay:10.37,2013-10-04 15:15:00,
2013-10-04 10:21:00,76.1,67.9,29.75,SSE,160,8.0,15.0,76,0.00,BKN,BKN,0.00,WeatherDisplay:10.37,2013-10-04 15:21:00,
2013-10-04 10:27:00,76.5,68.0,29.76,South,180,7.0,15.0,75,0.00,BKN,BKN,0.00,WeatherDisplay:10.37,2013-10-04 15:27:00,
2013-10-04 10:33:00,77.5,68.6,29.76,SSW,199,9.0,14.0,74,0.00,BKN,BKN,0.00,WeatherDisplay:10.37,2013-10-04 15:33:00,
2013-10-04 10:36:00,77.8,68.4,29.76,SSW,210,12.0,16.0,73,0.00,BKN,BKN,0.00,WeatherDisplay:10.37,2013-10-04 15:36:00,
2013-10-04 10:42:00,77.9,68.1,29.76,SSW,193,10.0,14.0,72,0.00,BKN,BKN,0.00,WeatherDisplay:10.37,2013-10-04 15:42:00,
2013-10-04 10:48:00,78.1,67.9,29.76,SSE,167,17.0,22.0,71,0.00,BKN,BKN,0.00,WeatherDisplay:10.37,2013-10-04 15:48:00,
2013-10-04 10:54:00,78.0,67.8,29.76,SE,146,15.0,19.0,71,0.00,BKN,BKN,0.00,WeatherDisplay:10.37,2013-10-04 15:54:00,
2013-10-04 11:00:00,78.3,67.7,29.76,SSE,163,13.0,28.0,70,0.00,BKN,BKN,0.00,WeatherDisplay:10.37,2013-10-04 16:00:00,
2013-10-04 11:06:00,78.3,67.3,29.76,SSE,163,17.0,23.0,69,0.00,BKN,BKN,0.00,WeatherDisplay:10.37,2013-10-04 16:06:00,
2013-10-04 11:12:00,78.8,67.7,29.75,SSE,168,14.0,22.0,69,0.00,BKN,BKN,0.00,WeatherDisplay:10.37,2013-10-04 16:12:00,
2013-10-04 11:18:00,79.2,68.1,29.75,SSE,167,16.0,26.0,69,0.00,BKN,BKN,0.00,WeatherDisplay:10.37,2013-10-04 16:18:00,
2013-10-04 11:24:00,79.2,67.7,29.75,SSW,192,18.0,18.0,68,0.00,BKN,BKN,0.00,WeatherDisplay:10.37,2013-10-04 16:24:00,
2013-10-04 11:30:00,79.6,67.6,29.75,SSW,208,20.0,22.0,67,0.00,BKN,BKN,0.00,WeatherDisplay:10.37,2013-10-04 16:30:00,
2013-10-04 11:36:00,80.5,68.1,29.75,South,191,17.0,22.0,66,0.00,BKN,BKN,0.00,WeatherDisplay:10.37,2013-10-04 16:36:00,
2013-10-04 11:42:00,80.3,67.9,29.76,SSW,204,16.0,22.0,66,0.00,BKN,BKN,0.00,WeatherDisplay:10.37,2013-10-04 16:42:00,
2013-10-04 11:48:00,81.0,68.1,29.76,South,178,15.0,25.0,65,0.00,BKN,BKN,0.00,WeatherDisplay:10.37,2013-10-04 16:48:00,
2013-10-04 11:54:00,81.0,67.6,29.75,SSE,168,8.0,8.0,64,0.00,BKN,BKN,0.00,WeatherDisplay:10.37,2013-10-04 16:54:00,
2013-10-04 12:00:00,80.9,67.1,29.75,South,187,14.0,22.0,63,0.00,BKN,BKN,0.00,WeatherDisplay:10.37,2013-10-04 17:00:00,
2013-10-04 12:06:00,81.4,67.6,29.75,SSW,205,10.0,17.0,63,0.00,SCT,SCT,0.00,WeatherDisplay:10.37,2013-10-04 17:06:00,
2013-10-04 12:12:00,82.2,67.9,29.75,SW,221,12.0,19.0,62,0.00,SCT,SCT,0.00,WeatherDisplay:10.37,2013-10-04 17:12:00,
2013-10-04 12:18:00,82.3,68.0,29.76,SSW,195,12.0,20.0,62,0.00,SCT,SCT,0.00,WeatherDisplay:10.37,2013-10-04 17:18:00,
2013-10-04 12:24:00,82.6,67.3,29.76,South,191,17.0,23.0,60,0.00,SCT,SCT,0.00,WeatherDisplay:10.37,2013-10-04 17:24:00,
2013-10-04 12:30:00,83.2,67.8,29.76,South,171,13.0,19.0,60,0.00,SCT,SCT,0.00,WeatherDisplay:10.37,2013-10-04 17:30:00,
2013-10-04 12:36:00,83.5,67.6,29.76,SSW,199,12.0,19.0,59,0.00,SCT,SCT,0.00,WeatherDisplay:10.37,2013-10-04 17:36:00,
2013-10-04 13:00:00,83.9,67.5,29.75,SSE,160,18.0,25.0,58,0.00,SCT,SCT,0.00,WeatherDisplay:10.37,2013-10-04 18:00:00,
2013-10-04 13:06:00,84.2,67.3,29.75,SSE,161,13.0,23.0,57,0.00,SCT,SCT,0.00,WeatherDisplay:10.37,2013-10-04 18:06:00,
2013-10-04 13:12:00,84.2,67.8,29.75,South,176,16.0,18.0,58,0.00,SCT,SCT,0.00,WeatherDisplay:10.37,2013-10-04 18:12:00,
2013-10-04 13:18:00,84.6,67.6,29.75,South,172,12.0,20.0,57,0.00,SCT,SCT,0.00,WeatherDisplay:10.37,2013-10-04 18:18:00,
2013-10-04 13:24:00,84.8,67.8,29.75,SSE,163,17.0,22.0,57,0.00,SCT,SCT,0.00,WeatherDisplay:10.37,2013-10-04 18:24:00,
2013-10-04 13:30:00,85.0,68.1,29.74,SE,140,10.0,20.0,57,0.00,SCT,SCT,0.00,WeatherDisplay:10.37,2013-10-04 18:30:00,
2013-10-04 13:36:00,84.9,67.4,29.74,South,179,12.0,22.0,56,0.00,SCT,SCT,0.00,WeatherDisplay:10.37,2013-10-04 18:36:00,
2013-10-04 13:42:00,85.6,68.1,29.74,South,182,16.0,19.0,56,0.00,SCT,SCT,0.00,WeatherDisplay:10.37,2013-10-04 18:42:00,
2013-10-04 13:48:00,85.5,67.5,29.74,SSE,163,10.0,24.0,55,0.00,SCT,SCT,0.00,WeatherDisplay:10.37,2013-10-04 18:48:00,
2013-10-04 13:54:00,86.5,68.4,29.74,South,177,9.0,13.0,55,0.00,SCT,SCT,0.00,WeatherDisplay:10.37,2013-10-04 18:54:00,
2013-10-04 14:00:00,85.9,67.9,29.74,SSW,199,13.0,21.0,55,0.00,SCT,SCT,0.00,WeatherDisplay:10.37,2013-10-04 19:00:00,
2013-10-04 14:06:00,86.2,67.6,29.73,South,169,13.0,19.0,54,0.00,SCT,SCT,0.00,WeatherDisplay:10.37,2013-10-04 19:06:00,
2013-10-04 14:12:00,87.3,68.1,29.73,SSE,161,8.0,13.0,53,0.00,SCT,SCT,0.00,WeatherDisplay:10.37,2013-10-04 19:12:00,
2013-10-04 14:18:00,86.8,67.6,29.73,SSE,157,13.0,20.0,53,0.00,SCT,SCT,0.00,WeatherDisplay:10.37,2013-10-04 19:18:00,
2013-10-04 14:24:00,87.2,67.4,29.73,SSW,200,13.0,14.0,52,0.00,SCT,SCT,0.00,WeatherDisplay:10.37,2013-10-04 19:24:00,
2013-10-04 14:30:00,87.3,66.9,29.72,SSW,194,13.0,20.0,51,0.00,SCT,SCT,0.00,WeatherDisplay:10.37,2013-10-04 19:30:00,
2013-10-04 14:36:00,87.5,66.5,29.72,SSW,205,10.0,19.0,50,0.00,SCT,SCT,0.00,WeatherDisplay:10.37,2013-10-04 19:36:00,
2013-10-04 14:42:00,88.5,66.9,29.72,SSW,211,13.0,18.0,49,0.00,SCT,SCT,0.00,WeatherDisplay:10.37,2013-10-04 19:42:00,
2013-10-04 14:48:00,87.8,66.2,29.72,SSE,157,14.0,17.0,49,0.00,SCT,SCT,0.00,WeatherDisplay:10.37,2013-10-04 19:48:00,
2013-10-04 14:54:00,88.8,67.2,29.72,WSW,252,6.0,12.0,49,0.00,SCT,SCT,0.00,WeatherDisplay:10.37,2013-10-04 19:54:00,
2013-10-04 15:00:00,88.4,65.6,29.72,SW,227,16.0,22.0,47,0.00,SCT,SCT,0.00,WeatherDisplay:10.37,2013-10-04 20:00:00,
2013-10-04 15:06:00,88.5,66.9,29.71,South,177,10.0,15.0,49,0.00,SCT,SCT,0.00,WeatherDisplay:10.37,2013-10-04 20:06:00,
2013-10-04 15:12:00,88.6,67.5,29.71,South,189,10.0,12.0,50,0.00,SCT,SCT,0.00,WeatherDisplay:10.37,2013-10-04 20:12:00,
2013-10-04 15:18:00,88.8,66.5,29.72,SSE,162,14.0,19.0,48,0.00,SCT,SCT,0.00,WeatherDisplay:10.37,2013-10-04 20:18:00,
2013-10-04 15:24:00,88.8,66.6,29.72,South,172,13.0,17.0,48,0.00,SCT,SCT,0.00,WeatherDisplay:10.37,2013-10-04 20:24:00,
2013-10-04 15:30:00,87.7,66.1,29.72,South,189,12.0,15.0,49,0.00,SCT,SCT,0.00,WeatherDisplay:10.37,2013-10-04 20:30:00,
2013-10-04 15:36:00,88.5,66.3,29.72,SSW,195,9.0,24.0,48,0.00,SCT,SCT,0.00,WeatherDisplay:10.37,2013-10-04 20:36:00,
2013-10-04 15:42:00,88.1,65.3,29.72,SSW,202,13.0,17.0,47,0.00,SCT,SCT,0.00,WeatherDisplay:10.37,2013-10-04 20:42:00,
2013-10-04 15:48:00,88.2,66.0,29.72,SW,216,13.0,17.0,48,0.00,SCT,SCT,0.00,WeatherDisplay:10.37,2013-10-04 20:48:00,
2013-10-04 15:54:00,88.2,66.0,29.72,South,174,8.0,9.0,48,0.00,SCT,SCT,0.00,WeatherDisplay:10.37,2013-10-04 20:54:00,
2013-10-04 16:00:00,87.7,65.5,29.72,South,173,15.0,19.0,48,0.00,SCT,SCT,0.00,WeatherDisplay:10.37,2013-10-04 21:00:00,
2013-10-04 16:06:00,87.8,66.2,29.73,South,179,10.0,13.0,49,0.00,SCT,SCT,0.00,WeatherDisplay:10.37,2013-10-04 21:06:00,
2013-10-04 16:12:00,87.3,65.8,29.73,SSW,200,16.0,21.0,49,0.00,SCT,SCT,0.00,WeatherDisplay:10.37,2013-10-04 21:12:00,
2013-10-04 16:18:00,87.7,66.1,29.73,SSE,162,10.0,10.0,49,0.00,SCT,SCT,0.00,WeatherDisplay:10.37,2013-10-04 21:18:00,
2013-10-04 16:24:00,87.7,66.1,29.73,SSE,157,10.0,10.0,49,0.00,SCT,SCT,0.00,WeatherDisplay:10.37,2013-10-04 21:24:00,
2013-10-04 16:30:00,86.8,65.9,29.73,SSE,155,14.0,17.0,50,0.00,SCT,SCT,0.00,WeatherDisplay:10.37,2013-10-04 21:30:00,
2013-10-04 16:36:00,87.3,66.4,29.72,South,172,6.0,18.0,50,0.00,SCT,SCT,0.00,WeatherDisplay:10.37,2013-10-04 21:36:00,
2013-10-04 16:42:00,86.6,65.7,29.72,SSE,162,14.0,22.0,50,0.00,SCT,SCT,0.00,WeatherDisplay:10.37,2013-10-04 21:42:00,
2013-10-04 16:48:00,86.8,65.9,29.71,South,185,8.0,13.0,50,0.00,SCT,SCT,0.00,WeatherDisplay:10.37,2013-10-04 21:48:00,
2013-10-04 16:54:00,86.8,65.9,29.71,South,174,13.0,21.0,50,0.00,SCT,SCT,0.00,WeatherDisplay:10.37,2013-10-04 21:54:00,
2013-10-04 17:00:00,86.1,65.8,29.71,South,177,9.0,16.0,51,0.00,SCT,SCT,0.00,WeatherDisplay:10.37,2013-10-04 22:00:00,
2013-10-04 17:06:00,85.5,65.3,29.71,South,171,9.0,16.0,51,0.00,SCT,SCT,0.00,WeatherDisplay:10.37,2013-10-04 22:06:00,
2013-10-04 17:12:00,85.1,65.0,29.71,SE,127,12.0,15.0,51,0.00,SCT,SCT,0.00,WeatherDisplay:10.37,2013-10-04 22:12:00,
2013-10-04 17:18:00,85.0,64.8,29.71,SSE,149,10.0,10.0,51,0.00,SCT,SCT,0.00,WeatherDisplay:10.37,2013-10-04 22:18:00,
2013-10-04 17:24:00,85.0,64.8,29.71,SSE,157,10.0,10.0,51,0.00,SCT,SCT,0.00,WeatherDisplay:10.37,2013-10-04 22:24:00,
2013-10-04 17:30:00,85.0,64.8,29.71,SSE,157,10.0,10.0,51,0.00,SCT,SCT,0.00,WeatherDisplay:10.37,2013-10-04 22:30:00,
2013-10-04 17:36:00,85.0,64.8,29.71,South,172,12.0,19.0,51,0.00,SCT,SCT,0.00,WeatherDisplay:10.37,2013-10-04 22:36:00,
2013-10-04 17:42:00,79.0,58.2,29.75,West,266,15.0,20.0,49,0.00,SCT,SCT,0.00,WeatherDisplay:10.37,2013-10-04 22:42:00,
2013-10-04 17:48:00,72.7,62.3,29.75,WNW,294,24.0,33.0,70,0.01,RA,RA,0.01,WeatherDisplay:10.37,2013-10-04 22:48:00,
2013-10-04 17:54:00,66.4,63.4,29.83,WNW,289,13.0,20.0,90,0.02,RA,RA,0.17,WeatherDisplay:10.37,2013-10-04 22:54:00,
2013-10-04 18:00:00,66.8,64.0,29.81,WNW,289,5.0,10.0,91,0.00,RA,RA,0.17,WeatherDisplay:10.37,2013-10-04 23:00:00,
2013-10-04 18:06:00,67.5,65.1,29.77,West,262,2.0,6.0,92,0.00,BKN,BKN,0.17,WeatherDisplay:10.37,2013-10-04 23:06:00,
2013-10-04 18:12:00,67.7,65.3,29.77,West,262,1.0,5.0,92,0.00,BKN,BKN,0.17,WeatherDisplay:10.37,2013-10-04 23:12:00,
2013-10-04 18:18:00,67.7,65.6,29.76,West,280,2.0,3.0,93,0.00,BKN,BKN,0.17,WeatherDisplay:10.37,2013-10-04 23:18:00,
2013-10-04 18:24:00,67.6,66.1,29.77,West,273,0.0,3.0,95,0.00,BKN,BKN,0.17,WeatherDisplay:10.37,2013-10-04 23:24:00,
2013-10-04 18:30:00,67.7,66.2,29.77,SW,218,0.0,0.0,95,0.00,BKN,BKN,0.17,WeatherDisplay:10.37,2013-10-04 23:30:00,
2013-10-04 18:36:00,67.5,66.3,29.78,WNW,285,3.0,6.0,96,0.01,RA,RA,0.18,WeatherDisplay:10.37,2013-10-04 23:36:00,
2013-10-04 18:42:00,67.3,65.8,29.79,West,268,2.0,6.0,95,0.02,RA,RA,0.22,WeatherDisplay:10.37,2013-10-04 23:42:00,
2013-10-04 18:48:00,67.3,65.8,29.79,WSW,257,3.0,5.0,95,0.00,RA,RA,0.23,WeatherDisplay:10.37,2013-10-04 23:48:00,
2013-10-04 18:54:00,67.3,65.5,29.81,WSW,238,0.0,2.0,94,0.00,RA,RA,0.23,WeatherDisplay:10.37,2013-10-04 23:54:00,
2013-10-04 19:00:00,67.3,64.5,29.82,West,274,5.0,6.0,91,0.00,BKN,BKN,0.23,WeatherDisplay:10.37,2013-10-05 00:00:00,
2013-10-04 19:06:00,67.3,64.5,29.82,NW,323,3.0,5.0,91,0.00,-RA,-RA,0.24,WeatherDisplay:10.37,2013-10-05 00:06:00,
2013-10-04 19:12:00,67.3,63.9,29.82,North,5,2.0,8.0,89,0.00,-RA,-RA,0.24,WeatherDisplay:10.37,2013-10-05 00:12:00,
2013-10-04 19:18:00,67.3,62.3,29.83,West,277,3.0,5.0,84,0.00,-RA,-RA,0.24,WeatherDisplay:10.37,2013-10-05 00:18:00,
2013-10-04 19:24:00,66.2,60.8,29.83,West,270,5.0,10.0,83,0.00,-RA,-RA,0.25,WeatherDisplay:10.37,2013-10-05 00:24:00,
2013-10-04 19:30:00,66.0,58.5,29.83,West,272,3.0,9.0,77,0.00,-RA,-RA,0.25,WeatherDisplay:10.37,2013-10-05 00:30:00,
2013-10-04 19:36:00,65.3,57.1,29.84,NW,317,5.0,9.0,75,0.00,-RA,-RA,0.25,WeatherDisplay:10.37,2013-10-05 00:36:00,
2013-10-04 19:42:00,65.1,56.6,29.85,WNW,299,5.0,8.0,74,0.00,-RA,-RA,0.25,WeatherDisplay:10.37,2013-10-05 00:42:00,
2013-10-04 19:48:00,64.1,57.5,29.85,West,276,3.0,4.0,79,0.00,-RA,-RA,0.25,WeatherDisplay:10.37,2013-10-05 00:48:00,
2013-10-04 19:54:00,63.9,56.9,29.85,NW,324,5.0,6.0,78,0.00,-RA,-RA,0.25,WeatherDisplay:10.37,2013-10-05 00:54:00,
2013-10-04 20:00:00,64.2,56.8,29.86,WNW,293,5.0,8.0,77,0.00,-RA,-RA,0.25,WeatherDisplay:10.37,2013-10-05 01:00:00,
2013-10-04 20:06:00,64.4,54.8,29.87,NW,316,8.0,12.0,71,0.00,OVC,OVC,0.25,WeatherDisplay:10.37,2013-10-05 01:06:00,
2013-10-04 20:12:00,64.1,52.9,29.87,WNW,282,6.0,10.0,67,0.00,OVC,OVC,0.25,WeatherDisplay:10.37,2013-10-05 01:12:00,
2013-10-04 20:18:00,63.5,52.7,29.88,SSW,205,3.0,8.0,68,0.00,OVC,OVC,0.25,WeatherDisplay:10.37,2013-10-05 01:18:00,
2013-10-04 20:24:00,63.5,52.3,29.88,WNW,301,6.0,10.0,67,0.00,OVC,OVC,0.25,WeatherDisplay:10.37,2013-10-05 01:24:00,
2013-10-04 20:30:00,63.7,50.0,29.88,WNW,300,9.0,14.0,61,0.00,OVC,OVC,0.25,WeatherDisplay:10.37,2013-10-05 01:30:00,
2013-10-04 20:36:00,63.4,50.1,29.88,WNW,294,6.0,7.0,62,0.00,OVC,OVC,0.25,WeatherDisplay:10.37,2013-10-05 01:36:00,
2013-10-04 20:42:00,63.4,49.7,29.88,SW,216,8.0,8.0,61,0.00,OVC,OVC,0.25,WeatherDisplay:10.37,2013-10-05 01:42:00,
2013-10-04 20:48:00,63.4,49.7,29.88,South,180,8.0,8.0,61,0.00,OVC,OVC,0.25,WeatherDisplay:10.37,2013-10-05 01:48:00,
2013-10-04 20:54:00,63.4,49.7,29.88,South,180,8.0,8.0,61,0.00,OVC,OVC,0.25,WeatherDisplay:10.37,2013-10-05 01:54:00,
2013-10-04 21:00:00,63.4,49.7,29.88,South,180,8.0,8.0,61,0.00,OVC,OVC,0.25,WeatherDisplay:10.37,2013-10-05 02:00:00,
2013-10-04 21:06:00,62.8,46.3,29.92,SSW,206,7.0,12.0,55,0.00,BKN,BKN,0.25,WeatherDisplay:10.37,2013-10-05 02:06:00,
2013-10-04 21:12:00,62.3,46.4,29.92,NW,319,8.0,12.0,56,0.00,BKN,BKN,0.25,WeatherDisplay:10.37,2013-10-05 02:12:00,
2013-10-04 21:18:00,62.3,45.4,29.92,WNW,296,8.0,12.0,54,0.00,BKN,BKN,0.25,WeatherDisplay:10.37,2013-10-05 02:18:00,
2013-10-04 21:24:00,62.2,45.3,29.92,NE,48,6.0,12.0,54,0.00,BKN,BKN,0.25,WeatherDisplay:10.37,2013-10-05 02:24:00,
2013-10-04 21:30:00,62.1,45.2,29.92,NNW,332,8.0,15.0,54,0.00,BKN,BKN,0.25,WeatherDisplay:10.37,2013-10-05 02:30:00,
2013-10-04 21:36:00,61.9,44.5,29.92,West,271,8.0,16.0,53,0.00,BKN,BKN,0.25,WeatherDisplay:10.37,2013-10-05 02:36:00,
2013-10-04 21:42:00,61.6,43.2,29.93,WNW,285,12.0,13.0,51,0.00,BKN,BKN,0.25,WeatherDisplay:10.37,2013-10-05 02:42:00,
2013-10-04 21:48:00,61.4,43.6,29.93,NNW,332,8.0,14.0,52,0.00,BKN,BKN,0.25,WeatherDisplay:10.37,2013-10-05 02:48:00,
2013-10-04 21:54:00,61.1,43.3,29.95,NW,318,6.0,12.0,52,0.00,BKN,BKN,0.25,WeatherDisplay:10.37,2013-10-05 02:54:00,
2013-10-04 22:00:00,60.8,42.5,29.96,WNW,285,8.0,14.0,51,0.00,BKN,BKN,0.25,WeatherDisplay:10.37,2013-10-05 03:00:00,
2013-10-04 22:06:00,60.8,43.0,29.96,West,274,9.0,12.0,52,0.00,BKN,BKN,0.25,WeatherDisplay:10.37,2013-10-05 03:06:00,
2013-10-04 22:12:00,60.5,41.7,29.96,WNW,299,12.0,20.0,50,0.00,BKN,BKN,0.25,WeatherDisplay:10.37,2013-10-05 03:12:00,
2013-10-04 22:18:00,60.2,40.9,29.96,West,273,9.0,16.0,49,0.00,BKN,BKN,0.25,WeatherDisplay:10.37,2013-10-05 03:18:00,
2013-10-04 22:24:00,59.9,40.1,29.96,WNW,298,12.0,17.0,48,0.00,BKN,BKN,0.25,WeatherDisplay:10.37,2013-10-05 03:24:00,
2013-10-04 22:30:00,59.6,40.4,29.98,West,267,10.0,16.0,49,0.00,BKN,BKN,0.25,WeatherDisplay:10.37,2013-10-05 03:30:00,
2013-10-04 22:36:00,59.2,39.5,29.98,WSW,255,14.0,16.0,48,0.00,BKN,BKN,0.25,WeatherDisplay:10.37,2013-10-05 03:36:00,
2013-10-04 22:42:00,58.8,38.6,29.98,West,275,14.0,21.0,47,0.00,BKN,BKN,0.25,WeatherDisplay:10.37,2013-10-05 03:42:00,
2013-10-04 22:48:00,58.6,38.4,29.98,WNW,291,14.0,17.0,47,0.00,BKN,BKN,0.25,WeatherDisplay:10.37,2013-10-05 03:48:00,
2013-10-04 22:54:00,58.1,37.4,29.98,WNW,298,14.0,18.0,46,0.00,BKN,BKN,0.25,WeatherDisplay:10.37,2013-10-05 03:54:00,
2013-10-04 23:00:00,58.0,37.3,29.98,WNW,301,10.0,16.0,46,0.00,BKN,BKN,0.25,WeatherDisplay:10.37,2013-10-05 04:00:00,
2013-10-04 23:03:00,57.8,37.6,29.99,WNW,303,13.0,14.0,47,0.00,BKN,BKN,0.25,WeatherDisplay:10.37,2013-10-05 04:03:00,
2013-10-04 23:09:00,57.8,37.6,29.99,WNW,296,14.0,14.0,47,0.00,BKN,BKN,0.25,WeatherDisplay:10.37,2013-10-05 04:09:00,
2013-10-04 23:12:00,57.8,37.6,29.99,WNW,293,14.0,14.0,47,0.00,BKN,BKN,0.25,WeatherDisplay:10.37,2013-10-05 04:12:00,
2013-10-04 23:18:00,57.8,37.6,29.99,WNW,293,14.0,14.0,47,0.00,BKN,BKN,0.25,WeatherDisplay:10.37,2013-10-05 04:18:00,
2013-10-04 23:21:00,57.8,37.6,29.99,WNW,293,14.0,14.0,47,0.00,BKN,BKN,0.25,WeatherDisplay:10.37,2013-10-05 04:21:00,
2013-10-04 23:27:00,57.3,36.7,29.99,WNW,295,14.0,14.0,46,0.00,BKN,BKN,0.25,WeatherDisplay:10.37,2013-10-05 04:27:00,
2013-10-04 23:33:00,56.2,35.6,29.99,WNW,298,10.0,26.0,46,0.00,BKN,BKN,0.25,WeatherDisplay:10.37,2013-10-05 04:33:00,
2013-10-04 23:39:00,56.0,34.3,30.00,WNW,292,18.0,24.0,44,0.00,BKN,BKN,0.25,WeatherDisplay:10.37,2013-10-05 04:39:00,
2013-10-04 23:42:00,56.0,34.3,30.00,WNW,300,9.0,16.0,44,0.00,BKN,BKN,0.25,WeatherDisplay:10.37,2013-10-05 04:42:00,
2013-10-04 23:48:00,55.6,34.0,30.00,NW,317,8.0,17.0,44,0.00,BKN,BKN,0.25,WeatherDisplay:10.37,2013-10-05 04:48:00,
2013-10-04 23:54:00,55.4,34.4,30.01,WNW,291,14.0,16.0,45,0.00,BKN,BKN,0.25,WeatherDisplay:10.37,2013-10-05 04:54:00,